Back to catalog

COSMOS 2361

AliveMilitaryPO
NORAD 25590·PAYLOAD·🇷🇺 Russia

Launched Dec 24, 1998 from Plesetsk Cosmodrome

Loading…

Next Passes (next 24 hours)

TLE

FreshSource: Space-Track

Epoch: Sep 14, 2026, 02:52 UTC

1 25590U 98076A   26257.11998993  .00000060  00000-0  48819-4 0  9992
2 25590  82.9354 140.4725 0030496 218.2800 305.8954 13.73243188388902

Track COSMOS 2361 in real time with AllMySat

Download on the App Store